Rockwall, TX

5:01 PM CDT on March 26, 2017 (GMT -0500)
Rockwall

Weather History for KF46 - August, 2013

Change the Weather History Date:

Sunday, August 25, 2013

  Actual Average (KDFW) Record (KDFW)
Temperature  
Mean Temperature 84 °F -  
Max Temperature 97 °F 92 °F 106 °F (1952)
Min Temperature 73 °F 72 °F 61 °F (1926)
Cooling Degree Days 20    
Growing Degree Days 34 (Base 50)    
Moisture  
Dew Point 67 °F    
Average Humidity 55    
Maximum Humidity 84    
Minimum Humidity 37    
Precipitation  
Precipitation 0.00 in - - ()
Sea Level Pressure  
Sea Level Pressure 30.10 in    
Wind  
Wind Speed 6 mph (East)    
Max Wind Speed 16 mph    
Max Gust Speed 24 mph    
Visibility 10 miles    
Events      
Averages and records for this station are not official NWS values.
T = Trace of Precipitation, MM = Missing Value Source: NWS Daily Summary

Daily Weather History Graph

Daily Weather History Graph

Search for Another Location

Airport or City:

Trip Planner

Search our weather history database for the weather conditions in past years. The results will help you decide how hot, cold, wet, or windy it might be!

Date:

Astronomy

Aug. 25, 2013 Rise Set
Actual Time 6:55 AM CDT 7:59 PM CDT
Civil Twilight 6:30 AM CDT 8:24 PM CDT
Nautical Twilight 6:00 AM CDT 8:54 PM CDT
Astronomical Twilight 5:28 AM CDT 9:25 PM CDT
Moon 10:51 PM CDT (8/25) 11:39 AM CDT (8/25)
Length of Visible Light 13h 54m
Length of Day
13h 03m
Waning Gibbous, 75% of the Moon is Illuminated
Aug 25
Waning Gibbous
Aug 28
Last Quarter
Sep 5
New
Sep 12
First Quarter
Sep 19
Full

Hourly Weather History & Observations

Time (CDT) Temp. Heat Index Dew Point Humidity Pressure Visibility Wind Dir Wind Speed Gust Speed Precip Events Conditions
12:15 AM 83.8 °F 87.0 °F 68.2 °F 59% 30.05 in 10.0 mi East 5.8 mph - N/A   Clear
12:35 AM 82.8 °F 85.8 °F 68.2 °F 61% 30.06 in 10.0 mi East 4.6 mph - N/A   Clear
12:55 AM 81.9 °F 84.8 °F 68.2 °F 63% 30.06 in 10.0 mi East 4.6 mph - N/A   Clear
1:15 AM 81.5 °F 84.4 °F 68.4 °F 64% 30.06 in 10.0 mi East 5.8 mph - N/A   Clear
1:35 AM 81.5 °F 84.4 °F 68.4 °F 64% 30.06 in 10.0 mi East 5.8 mph - N/A   Clear
1:55 AM 81.0 °F 83.8 °F 68.0 °F 65% 30.07 in 10.0 mi East 5.8 mph - N/A   Clear
2:15 AM 80.1 °F 82.7 °F 68.0 °F 67% 30.07 in 10.0 mi East 4.6 mph - N/A   Clear
2:35 AM 79.7 °F - 68.0 °F 67% 30.07 in 10.0 mi East 5.8 mph - N/A   Clear
2:55 AM 79.3 °F - 68.0 °F 68% 30.07 in 10.0 mi East 4.6 mph - N/A   Clear
3:15 AM 79.0 °F - 67.6 °F 68% 30.08 in 10.0 mi East 3.5 mph - N/A   Clear
3:35 AM 78.8 °F - 67.5 °F 68% 30.08 in 10.0 mi ESE 3.5 mph - N/A   Clear
3:55 AM 78.6 °F - 67.5 °F 68% 30.08 in 10.0 mi ESE 4.6 mph - N/A   Clear
4:15 AM 78.1 °F - 67.5 °F 70% 30.08 in 10.0 mi East 3.5 mph - N/A   Clear
4:35 AM 78.1 °F - 67.5 °F 70% 30.09 in 10.0 mi ESE 3.5 mph - N/A   Clear
4:55 AM 77.9 °F - 67.5 °F 70% 30.09 in 10.0 mi ESE 3.5 mph - N/A   Clear
5:15 AM 77.4 °F - 67.5 °F 71% 30.10 in 10.0 mi Calm Calm - N/A   Clear
5:35 AM 77.2 °F - 67.5 °F 72% 30.11 in 10.0 mi Calm Calm - N/A   Clear
5:55 AM 76.8 °F - 67.6 °F 73% 30.12 in 10.0 mi Calm Calm - N/A   Clear
6:15 AM 75.9 °F - 68.4 °F 77% 30.12 in 10.0 mi Calm Calm - N/A   Clear
6:35 AM 73.4 °F - 68.0 °F 83% 30.12 in 10.0 mi Calm Calm - N/A   Clear
6:55 AM 73.4 °F - 68.0 °F 83% 30.13 in 10.0 mi Calm Calm - N/A   Clear
7:15 AM 73.4 °F - 68.2 °F 84% 30.14 in 10.0 mi Calm Calm - N/A   Clear
7:35 AM 74.1 °F - 68.4 °F 82% 30.14 in 10.0 mi ENE 3.5 mph - N/A   Clear
7:55 AM 76.3 °F - 68.4 °F 76% 30.14 in 10.0 mi ENE 3.5 mph - N/A   Clear
8:15 AM 78.4 °F - 68.7 °F 72% 30.14 in 10.0 mi ENE 4.6 mph - N/A   Clear
8:35 AM 80.1 °F 82.9 °F 69.1 °F 69% 30.14 in 10.0 mi ENE 4.6 mph - N/A   Clear
8:55 AM 82.2 °F 85.8 °F 69.4 °F 65% 30.14 in 10.0 mi East 6.9 mph - N/A   Clear
9:15 AM 82.8 °F 86.4 °F 69.6 °F 64% 30.14 in 10.0 mi ENE 4.6 mph - N/A   Clear
9:35 AM 83.3 °F 87.4 °F 69.8 °F 64% 30.14 in 10.0 mi Calm Calm - N/A   Clear
9:55 AM 85.1 °F 89.8 °F 70.2 °F 61% 30.14 in 10.0 mi ENE 4.6 mph - N/A   Clear
10:15 AM 85.8 °F 90.4 °F 70.2 °F 59% 30.14 in 10.0 mi ENE 5.8 mph - N/A   Clear
10:35 AM 86.9 °F 91.7 °F 69.8 °F 57% 30.15 in 10.0 mi East 8.1 mph - N/A   Clear
10:55 AM 88.7 °F 93.9 °F 70.3 °F 54% 30.15 in 10.0 mi NE 8.1 mph - N/A   Clear
11:15 AM 89.6 °F 95.2 °F 70.5 °F 53% 30.14 in 10.0 mi NNE 10.4 mph - N/A   Clear
11:35 AM 90.5 °F 95.5 °F 69.6 °F 50% 30.14 in 10.0 mi ENE 8.1 mph - N/A   Clear
11:55 AM 91.0 °F 94.3 °F 66.9 °F 45% 30.14 in 10.0 mi East 10.4 mph 18.4 mph N/A   Clear
12:15 PM 91.4 °F 94.5 °F 66.6 °F 44% 30.13 in 10.0 mi East 12.7 mph 19.6 mph N/A   Clear
12:35 PM 91.9 °F 95.0 °F 66.7 °F 43% 30.12 in 10.0 mi NE 13.8 mph 20.7 mph N/A   Clear
12:55 PM 92.7 °F 95.8 °F 66.4 °F 42% 30.12 in 10.0 mi ENE 10.4 mph 18.4 mph N/A   Clear
1:15 PM 93.2 °F 96.2 °F 66.0 °F 41% 30.11 in 10.0 mi East 13.8 mph 19.6 mph N/A   Clear
1:35 PM 93.4 °F 95.6 °F 64.8 °F 39% 30.11 in 10.0 mi ESE 13.8 mph 19.6 mph N/A   Clear
1:55 PM 93.7 °F 95.8 °F 64.9 °F 38% 30.11 in 10.0 mi East 9.2 mph 21.9 mph N/A   Clear
2:15 PM 94.5 °F 97.5 °F 66.0 °F 39% 30.11 in 10.0 mi ENE 12.7 mph 19.6 mph N/A   Clear
2:35 PM 94.3 °F 96.7 °F 65.3 °F 38% 30.10 in 10.0 mi ENE 16.1 mph 21.9 mph N/A   Clear
2:55 PM 95.0 °F 97.4 °F 64.9 °F 37% 30.09 in 10.0 mi East 12.7 mph 19.6 mph N/A   Clear
3:15 PM 95.0 °F 97.9 °F 65.8 °F 38% 30.09 in 10.0 mi NE 8.1 mph 21.9 mph N/A   Clear
3:35 PM 95.5 °F 98.4 °F 65.1 °F 37% 30.08 in 10.0 mi East 9.2 mph 18.4 mph N/A   Clear
3:55 PM 95.7 °F 99.2 °F 66.2 °F 38% 30.07 in 10.0 mi ENE 6.9 mph 20.7 mph N/A   Scattered Clouds
4:15 PM 95.0 °F 97.9 °F 65.8 °F 38% 30.07 in 10.0 mi ENE 10.4 mph 16.1 mph N/A   Scattered Clouds
4:35 PM 96.1 °F 99.3 °F 65.8 °F 37% 30.06 in 10.0 mi ESE 9.2 mph 24.2 mph N/A   Scattered Clouds
4:55 PM 96.1 °F 99.3 °F 66.0 °F 37% 30.06 in 10.0 mi ENE 8.1 mph 17.3 mph N/A   Scattered Clouds
5:15 PM 95.2 °F 98.3 °F 65.7 °F 38% 30.06 in 10.0 mi East 9.2 mph - N/A   Scattered Clouds
5:35 PM 95.5 °F 98.4 °F 65.5 °F 37% 30.06 in 10.0 mi East 12.7 mph 16.1 mph N/A   Mostly Cloudy
5:55 PM 94.6 °F 97.3 °F 65.1 °F 38% 30.05 in 10.0 mi East 10.4 mph 17.3 mph N/A   Scattered Clouds
6:15 PM 94.6 °F 97.3 °F 65.5 °F 38% 30.05 in 10.0 mi East 11.5 mph - N/A   Scattered Clouds
6:35 PM 94.3 °F 96.7 °F 65.3 °F 38% 30.05 in 10.0 mi East 9.2 mph 18.4 mph N/A   Scattered Clouds
6:55 PM 93.6 °F 95.9 °F 65.1 °F 39% 30.05 in 10.0 mi ENE 11.5 mph 18.4 mph N/A   Scattered Clouds
7:15 PM 93.2 °F 95.3 °F 64.8 °F 39% 30.05 in 10.0 mi East 15.0 mph 18.4 mph N/A   Scattered Clouds
7:35 PM 92.3 °F 93.8 °F 63.9 °F 39% 30.05 in 10.0 mi East 10.4 mph - N/A   Mostly Cloudy
7:55 PM 91.0 °F 92.6 °F 64.0 °F 41% 30.06 in 10.0 mi East 9.2 mph - N/A   Scattered Clouds
8:15 PM 89.4 °F 90.8 °F 64.4 °F 43% 30.06 in 10.0 mi East 5.8 mph - N/A   Clear
8:35 PM 88.2 °F 89.6 °F 64.4 °F 45% 30.07 in 10.0 mi East 5.8 mph - N/A   Clear
8:55 PM 87.1 °F 88.6 °F 64.8 °F 47% 30.07 in 10.0 mi East 5.8 mph - N/A   Clear
9:15 PM 86.5 °F 88.1 °F 64.8 °F 48% 30.08 in 10.0 mi East 5.8 mph - N/A   Clear
9:35 PM 86.4 °F 88.4 °F 65.5 °F 50% 30.09 in 10.0 mi East 6.9 mph - N/A   Clear
9:55 PM 85.6 °F 87.4 °F 65.3 °F 50% 30.09 in 10.0 mi East 6.9 mph - N/A   Clear
10:15 PM 85.3 °F 87.1 °F 65.3 °F 51% 30.10 in 10.0 mi East 8.1 mph - N/A   Clear
10:35 PM 84.6 °F 86.3 °F 65.3 °F 52% 30.11 in 10.0 mi East 5.8 mph - N/A   Clear
10:55 PM 84.0 °F 85.8 °F 65.3 °F 53% 30.12 in 10.0 mi East 5.8 mph - N/A   Clear
11:15 PM 83.3 °F 85.1 °F 65.3 °F 54% 30.12 in 10.0 mi East 5.8 mph - N/A   Clear
11:35 PM 82.8 °F 84.7 °F 65.8 °F 56% 30.12 in 10.0 mi East 5.8 mph - N/A   Clear
11:55 PM 82.0 °F 83.9 °F 65.5 °F 57% 30.13 in 10.0 mi East 4.6 mph - N/A   Clear